Location: Bauen
(46.9356°N, 8.5784°E)
Time: 06:27:05
(UTC+00:00)

BREEZE-M DEB (TANK) - Pass Details

Date: 18 February 2020
Orbit: 322 x 11713 km, 49.7° (Epoch: 09 April)

Event Time Altitude Azimuth Distance (km) Brightness Sun altitude
Exits shadow 03:56:16 78° 140° (SE) 721 3.8 -26.2°
Drops below altitude 10° 04:04:28 10° 70° (ENE) 4,131 8.8 -24.8°
Sets 04:10:30 0° 70° (ENE) 6,628 10.1 -23.8°
